sat.trackr.live / text

‹ back to catalog

STARLINK-11326 [DTC]

NORAD 62010 · 2024-213C

PAYLOAD ACTIVE UNKNOWN

§ Identity

Operator
Country
US
Launch date
2024-11-18
Launch site
AFWTR
Launch vehicle
Mass (kg)
RCS (m²)

Purposes: comms

External: N2YO · Heavens-Above · Gunter

§ Orbital elements

Epoch: 2026-05-24T23:03:16.049088Z

Period
91.73 min
Inclination
53.1579°
Eccentricity
0.0000924
Mean motion
15.69747421 rev/d
Perigee alt
359.0 km
Apogee alt
360.2 km
Semi-major
6,737.8 km
B*
1.7930e-3
RAAN
25.3245°
Arg perigee
65.7087°
Mean anomaly
294.4027°
Rev number
8,689

§ Raw data

STARLINK-11326 [DTC]1 62010U 24213C   26144.96060242  .00222912  00000+0  17930-2 0  99962 62010  53.1579  25.3245 0000924  65.7087 294.4027 15.69747421 86895

JSON: /api/v1/satellites/62010 · /tle

For live sub-satellite position, see the globe view (requires WebGL).

§ Visibility from observer

Set your observer location to see the next 7 days of passes ≥ 10°. The values pass through the URL so the page stays shareable.

No JS? Fill the form by hand. The geolocation button needs JavaScript.